METEOR 1-10

Satellite information

Favourite Embed

Satellite Type and Status

PAYLOADIN ORBIT

Key statistics

Satellite METEOR 1-10 at a glance.

Uptime

19708

Days in orbit

Revolutions

≈ 14.1

Per day

Orbit

LEO

Low Earth Orbit

Inclination

81.3

Latest

Satellite identification and parameters

Extended collection of information and parameters for METEOR 1-10.

Object identification

Identified? True

Debris? False

Object name: METEOR 1-10

International designator: 1971-120A

Object number (NORAD): 5731

Object ID (CCSDS): 5731

Country: COMMONWEALTH OF INDEPENDENT STATES (CIS)

Current information (Y/N): Y

RCS size: LARGE

Orbital parameters

Period: 101.993 minutes

Inclination: 81.2584 deg

SMA: 7231.152 km

Apoapsis: 869.39 km

Periapsis: 836.645 km

RAAN: 202.7194 deg

Eccentricy: 0.00226416

Argument of periapsis: 227.3704 deg

Mean anomaly: 132.5559 deg

Mean motion: 14.11859627 rev/day

Mean motion (dot): 0.00000041 rev/day2

B* drag term: 0.000015774644 1/REarth

Two-line elements (TLE)

Creation date: Dec. 12, 2025, 10:14 a.m.

Reference frame: TEME

Reference center: EARTH

Epoch: Dec. 12, 2025, 2:40 a.m. UTC

TLE line 0: 0 METEOR 1-10

TLE line 1: 1 05731U 71120A 25346.11159869 .00000041 00000-0 15775-4 0 9991

TLE line 2: 2 05731 81.2584 202.7194 0022642 227.3704 132.5559 14.11859627769716

Live tracking on map

Real-time ground track for satellite METEOR 1-10.

In-orbit conjunctions

A list of the most updated potential collisions computed for object METEOR 1-10.

Target Orbit TCA Probability of collision Miss distance Type
FENGYUN 1C DEB SSO 2025-08-25 23:40:44 0.000148766 114.0 (m) DEBRIS
FENGYUN 1C DEB SSO 2025-01-16 17:26:30 0.0002162228 650.0 (m) DEBRIS
CZ-6A DEB LEO 2025-01-13 05:24:06 0.0001414748 389.0 (m) DEBRIS
COSMOS 1275 DEB LEO 2025-01-11 07:43:14 0.0001153419 598.0 (m) DEBRIS
COSMOS 1656 LEO 2024-11-12 19:55:20 0.0001631744 299.0 (m) PAYLOAD

Associated space launch

The Meteor-1 series was the first series of Soviet meteorological satellites.

METEOR 1-10 was lifted into orbit during the mission ‘Vostok 8A92M | Meteor-1 10 (18L)’, on board a Vostok 8A92M space rocket.

The launch took place on Dec. 29, 1971, 10:50 a.m. from 41/1.

For more information about the launch, click the button.

Launch to space Vostok 8A92M | Meteor-1 10 (18L)
Vostok 8A92M | Meteor-1 10 (18L)

Agency: N/A

Status: Launch Successful

Launch date: Dec. 29, 1971, 10:50 a.m. UTC

Rocket: Vostok 8A92M

Launch pad: 41/1

Location: Plesetsk Cosmodrome, Russian Federation

...

Latest news about this satellite

There are no fresh news available about this satellite. Check back as we update our databases every day.


Newsletter sign-up

Weekly statistics, charts and insights to help you stay on top of the space industry.